Location: Fernhill
(41.0167°S, 175.6333°E)
Time: 01:54:58
(UTC+00:00)

BREEZE M DEB (TANK) - Pass Details

Date: 08 November 2025
Orbit: 290 x 13785 km, 49.6° (Epoch: 13 December)

Event Time Altitude Azimuth Distance (km) Brightness Sun altitude
Exits shadow 09:59:33 32° 104° (ESE) 1,487 4.3 -25.8°
Drops below altitude 10° 10:05:13 10° 120° (ESE) 4,049 6.7 -26.3°
Sets 10:11:29 0° 123° (ESE) 6,713 7.9 -26.9°
